| time (UTC) | temp F | wind direction | speed MPH | gust MPH | rain 1hr in | rain 24hr in | rain mn in | humidity % | barometer mb |
| 20260504050415 | 62 | 259 | 0.0 | 0.0 | 0.00 | 0.00 | 0.00 | 46 | 964.0 |
| 20260504045915 | 63 | 238 | 0.0 | 1.0 | 0.00 | 0.00 | 0.00 | 44 | 964.0 |
| 20260504045416 | 62 | 223 | 1.0 | 5.0 | 0.00 | 0.00 | 0.00 | 41 | 964.0 |
| 20260504044915 | 62 | 224 | 1.0 | 2.0 | 0.00 | 0.00 | 0.00 | 44 | 963.0 |
| 20260504044415 | 62 | 264 | 0.0 | 2.0 | 0.00 | 0.00 | 0.00 | 44 | 964.0 |
| 20260504043915 | 63 | 257 | 1.0 | 2.0 | 0.00 | 0.00 | 0.00 | 43 | 964.0 |
| 20260504043415 | 63 | 247 | 1.0 | 2.0 | 0.00 | 0.00 | 0.00 | 43 | 964.0 |
| 20260504042915 | 62 | 237 | 0.0 | 1.0 | 0.00 | 0.00 | 0.00 | 43 | 964.0 |
| 20260504042415 | 62 | 262 | 0.0 | 1.0 | 0.00 | 0.00 | 0.00 | 45 | 963.0 |
| 20260504041915 | 62 | 236 | 1.0 | 1.0 | 0.00 | 0.00 | 0.00 | 47 | 964.0 |
| 20260504041418 | 64 | 238 | 0.0 | 2.0 | 0.00 | 0.00 | 0.00 | 43 | 963.0 |
| 20260504040916 | 64 | 225 | 1.0 | 2.0 | 0.00 | 0.00 | 0.00 | 42 | 964.0 |
| 20260504040415 | 64 | 222 | 0.0 | 1.0 | 0.00 | 0.00 | 0.00 | 43 | 964.0 |
| 20260504035915 | 65 | 216 | 1.0 | 1.0 | 0.00 | 0.00 | 0.00 | 42 | 964.0 |
| 20260504035415 | 64 | 212 | 0.0 | 1.0 | 0.00 | 0.00 | 0.00 | 42 | 963.0 |
| 20260504034915 | 64 | 247 | 0.0 | 1.0 | 0.00 | 0.00 | 0.00 | 41 | 963.0 |
| 20260504034418 | 66 | 241 | 0.0 | 1.0 | 0.00 | 0.00 | 0.00 | 40 | 963.0 |
| 20260504033915 | 66 | 255 | 0.0 | 1.0 | 0.00 | 0.00 | 0.00 | 39 | 963.0 |
| 20260504032931 | 66 | 230 | 1.0 | 2.0 | 0.00 | 0.00 | 0.00 | 41 | 963.0 |
| 20260504032415 | 66 | 232 | 1.0 | 1.0 | 0.00 | 0.00 | 0.00 | 40 | 963.0 |
| 20260504031915 | 67 | 296 | 0.0 | 2.0 | 0.00 | 0.00 | 0.00 | 38 | 963.0 |
| 20260504031415 | 67 | 241 | 1.0 | 1.0 | 0.00 | 0.00 | 0.00 | 38 | 963.0 |
| 20260504030915 | 67 | 243 | 0.0 | 1.0 | 0.00 | 0.00 | 0.00 | 40 | 963.0 |
| 20260504030416 | 68 | 241 | 0.0 | 1.0 | 0.00 | 0.00 | 0.00 | 36 | 963.0 |
| 20260504025915 | 67 | 243 | 0.0 | 1.0 | 0.00 | 0.00 | 0.00 | 37 | 963.0 |
| 20260504025415 | 68 | 225 | 1.0 | 1.0 | 0.00 | 0.00 | 0.00 | 38 | 963.0 |
| 20260504024916 | 69 | 245 | 1.0 | 1.0 | 0.00 | 0.00 | 0.00 | 36 | 963.0 |
| 20260504024415 | 69 | 254 | 0.0 | 0.0 | 0.00 | 0.00 | 0.00 | 37 | 963.0 |
| 20260504023915 | 70 | 265 | 1.0 | 2.0 | 0.00 | 0.00 | 0.00 | 36 | 963.0 |
| 20260504023415 | 70 | 281 | 1.0 | 3.0 | 0.00 | 0.00 | 0.00 | 36 | 963.0 |
| 20260504022915 | 72 | 262 | 0.0 | 1.0 | 0.00 | 0.00 | 0.00 | 33 | 963.0 |
| 20260504022415 | 72 | 273 | 3.0 | 6.0 | 0.00 | 0.00 | 0.00 | 27 | 963.0 |
| 20260504021915 | 73 | 215 | 1.0 | 2.0 | 0.00 | 0.00 | 0.00 | 29 | 963.0 |
| 20260504021415 | 75 | 225 | 1.0 | 1.0 | 0.00 | 0.00 | 0.00 | 27 | 963.0 |
| 20260504020915 | 75 | 219 | 3.0 | 3.0 | 0.00 | 0.00 | 0.00 | 24 | 963.0 |
| 20260504020416 | 75 | 234 | 2.0 | 9.0 | 0.00 | 0.00 | 0.00 | 23 | 963.0 |
| 20260504015915 | 75 | 223 | 1.0 | 2.0 | 0.00 | 0.00 | 0.00 | 26 | 962.0 |
| 20260504015415 | 75 | 222 | 1.0 | 9.0 | 0.00 | 0.00 | 0.00 | 30 | 963.0 |
| 20260504014915 | 75 | 211 | 1.0 | 5.0 | 0.00 | 0.00 | 0.00 | 27 | 963.0 |
| 20260504014415 | 74 | 237 | 1.0 | 3.0 | 0.00 | 0.00 | 0.00 | 29 | 963.0 |
| 20260504013915 | 73 | 223 | 1.0 | 3.0 | 0.00 | 0.00 | 0.00 | 30 | 963.0 |
| 20260504013415 | 74 | 221 | 1.0 | 2.0 | 0.00 | 0.00 | 0.00 | 31 | 963.0 |
| 20260504012915 | 75 | 227 | 0.0 | 2.0 | 0.00 | 0.00 | 0.00 | 30 | 963.0 |
| 20260504012415 | 76 | 226 | 2.0 | 3.0 | 0.00 | 0.00 | 0.00 | 30 | 963.0 |
| 20260504011915 | 76 | 204 | 1.0 | 3.0 | 0.00 | 0.00 | 0.00 | 33 | 963.0 |
| 20260504011416 | 76 | 200 | 2.0 | 3.0 | 0.00 | 0.00 | 0.00 | 31 | 963.0 |
| 20260504010916 | 76 | 222 | 1.0 | 6.0 | 0.00 | 0.00 | 0.00 | 30 | 963.0 |
| 20260504010415 | 76 | 231 | 1.0 | 2.0 | 0.00 | 0.00 | 0.00 | 31 | 963.0 |
| 20260504005915 | 77 | 217 | 1.0 | 6.0 | 0.00 | 0.00 | 0.00 | 26 | 963.0 |
| 20260504005415 | 78 | 220 | 1.0 | 5.0 | 0.00 | 0.00 | 0.00 | 27 | 963.0 |
| 20260504004916 | 78 | 224 | 1.0 | 1.0 | 0.00 | 0.00 | 0.00 | 28 | 963.0 |
| 20260504004415 | 79 | 281 | 1.0 | 2.0 | 0.00 | 0.00 | 0.00 | 29 | 963.0 |
| 20260504003915 | 78 | 237 | 1.0 | 7.0 | 0.00 | 0.00 | 0.00 | 26 | 963.0 |
| 20260504003415 | 79 | 290 | 1.0 | 2.0 | 0.00 | 0.00 | 0.00 | 29 | 963.0 |
| 20260504002916 | 79 | 284 | 0.0 | 3.0 | 0.00 | 0.00 | 0.00 | 29 | 963.0 |
| 20260504002415 | 79 | 245 | 1.0 | 2.0 | 0.00 | 0.00 | 0.00 | 30 | 963.0 |
| 20260504001915 | 80 | 237 | 3.0 | 5.0 | 0.00 | 0.00 | 0.00 | 27 | 963.0 |
| 20260504001415 | 80 | 210 | 1.0 | 3.0 | 0.00 | 0.00 | 0.00 | 26 | 963.0 |
| 20260504000915 | 80 | 252 | 0.0 | 2.0 | 0.00 | 0.00 | 0.00 | 27 | 963.0 |
| 20260504000416 | 81 | 199 | 2.0 | 5.0 | 0.00 | 0.00 | 0.00 | 24 | 963.0 |
| 20260503235915 | 82 | 217 | 1.0 | 3.0 | 0.00 | 0.00 | 0.00 | 27 | 963.0 |
| 20260503235415 | 82 | 198 | 3.0 | 5.0 | 0.00 | 0.00 | 0.00 | 25 | 964.0 |
| 20260503234915 | 82 | 228 | 1.0 | 3.0 | 0.00 | 0.00 | 0.00 | 25 | 964.0 |
| 20260503234415 | 84 | 195 | 2.0 | 5.0 | 0.00 | 0.00 | 0.00 | 24 | 964.0 |
| 20260503233915 | 84 | 211 | 0.0 | 5.0 | 0.00 | 0.00 | 0.00 | 25 | 964.0 |
| 20260503233415 | 84 | 225 | 1.0 | 1.0 | 0.00 | 0.00 | 0.00 | 24 | 964.0 |
| 20260503232915 | 83 | 199 | 2.0 | 5.0 | 0.00 | 0.00 | 0.00 | 24 | 964.0 |
| 20260503232416 | 83 | 260 | 1.0 | 6.0 | 0.00 | 0.00 | 0.00 | 24 | 964.0 |
| 20260503231915 | 83 | 287 | 2.0 | 5.0 | 0.00 | 0.00 | 0.00 | 24 | 964.0 |
| 20260503231415 | 83 | 199 | 1.0 | 2.0 | 0.00 | 0.00 | 0.00 | 23 | 963.0 |
| 20260503230915 | 83 | 212 | 1.0 | 3.0 | 0.00 | 0.00 | 0.00 | 25 | 964.0 |
| 20260503230415 | 83 | 209 | 3.0 | 5.0 | 0.00 | 0.00 | 0.00 | 23 | 964.0 |
| 20260503225915 | 82 | 234 | 0.0 | 2.0 | 0.00 | 0.00 | 0.00 | 26 | 964.0 |
| 20260503225416 | 82 | 267 | 1.0 | 5.0 | 0.00 | 0.00 | 0.00 | 25 | 964.0 |
| 20260503224915 | 82 | 241 | 0.0 | 3.0 | 0.00 | 0.00 | 0.00 | 26 | 964.0 |
| 20260503224416 | 82 | 201 | 1.0 | 5.0 | 0.00 | 0.00 | 0.00 | 25 | 964.0 |
| 20260503223916 | 82 | 225 | 0.0 | 5.0 | 0.00 | 0.00 | 0.00 | 26 | 964.0 |
| 20260503223415 | 82 | 242 | 0.0 | 2.0 | 0.00 | 0.00 | 0.00 | 26 | 964.0 |
| 20260503222915 | 82 | 230 | 1.0 | 2.0 | 0.00 | 0.00 | 0.00 | 24 | 964.0 |
| 20260503222415 | 82 | 236 | 0.0 | 3.0 | 0.00 | 0.00 | 0.00 | 26 | 965.0 |
| 20260503221915 | 81 | 222 | 0.0 | 1.0 | 0.00 | 0.00 | 0.00 | 25 | 964.0 |
| 20260503221415 | 81 | 289 | 2.0 | 8.0 | 0.00 | 0.00 | 0.00 | 26 | 964.0 |
| 20260503220915 | 82 | 275 | 1.0 | 2.0 | 0.00 | 0.00 | 0.00 | 26 | 964.0 |
| 20260503220416 | 82 | 271 | 0.0 | 5.0 | 0.00 | 0.00 | 0.00 | 26 | 964.0 |
| 20260503215915 | 82 | 244 | 1.0 | 2.0 | 0.00 | 0.00 | 0.00 | 27 | 965.0 |
| 20260503215415 | 81 | 206 | 3.0 | 3.0 | 0.00 | 0.00 | 0.00 | 27 | 965.0 |
| 20260503214915 | 82 | 188 | 1.0 | 3.0 | 0.00 | 0.00 | 0.00 | 26 | 965.0 |
| 20260503214415 | 81 | 188 | 3.0 | 3.0 | 0.00 | 0.00 | 0.00 | 26 | 965.0 |
| 20260503213915 | 81 | 206 | 2.0 | 2.0 | 0.00 | 0.00 | 0.00 | 27 | 965.0 |
| 20260503213415 | 81 | 245 | 1.0 | 6.0 | 0.00 | 0.00 | 0.00 | 28 | 965.0 |
| 20260503212915 | 81 | 264 | 2.0 | 3.0 | 0.00 | 0.00 | 0.00 | 27 | 965.0 |
| 20260503212416 | 80 | 202 | 1.0 | 2.0 | 0.00 | 0.00 | 0.00 | 27 | 965.0 |
| 20260503211916 | 81 | 183 | 2.0 | 8.0 | 0.00 | 0.00 | 0.00 | 27 | 965.0 |
| 20260503211415 | 81 | 300 | 2.0 | 3.0 | 0.00 | 0.00 | 0.00 | 27 | 965.0 |
| 20260503210915 | 81 | 281 | 3.0 | 5.0 | 0.00 | 0.00 | 0.00 | 27 | 965.0 |
| 20260503210415 | 81 | 156 | 1.0 | 5.0 | 0.00 | 0.00 | 0.00 | 30 | 965.0 |
| 20260503205915 | 80 | 285 | 0.0 | 5.0 | 0.00 | 0.00 | 0.00 | 28 | 965.0 |
| 20260503205415 | 80 | 299 | 0.0 | 3.0 | 0.00 | 0.00 | 0.00 | 29 | 965.0 |
| 20260503204917 | 81 | 222 | 0.0 | 0.0 | 0.00 | 0.00 | 0.00 | 28 | 965.0 |
| 20260503204415 | 80 | 183 | 0.0 | 0.0 | 0.00 | 0.00 | 0.00 | 27 | 965.0 |
| 20260503203915 | 80 | 230 | 0.0 | 0.0 | 0.00 | 0.00 | 0.00 | 27 | 966.0 |
| 20260503203415 | 78 | 245 | 0.0 | 0.0 | 0.00 | 0.00 | 0.00 | 30 | 965.0 |
| 20260503202915 | 73 | 241 | 0.0 | 1.0 | 0.00 | 0.00 | 0.00 | 32 | 965.0 |
| 20260503202418 | 72 | 114 | 0.0 | 0.0 | 0.00 | 0.00 | 0.00 | 41 | 966.0 |
| 20260503201916 | 68 | 64 | 0.0 | 0.0 | 0.00 | 0.00 | 0.00 | 38 | 966.0 |
| 20260503201416 | 66 | 93 | 0.0 | 0.0 | 0.00 | 0.00 | 0.00 | 39 | 966.0 |
| 20260503200915 | 65 | 66 | 0.0 | 0.0 | 0.00 | 0.00 | 0.00 | 51 | 966.0 |
| 20260503200415 | 64 | 85 | 0.0 | 0.0 | 0.00 | 0.00 | 0.00 | 51 | 967.0 |
| 20260503195915 | 65 | 94 | 0.0 | 0.0 | 0.00 | 0.00 | 0.00 | 47 | 966.0 |
| 20260503195415 | 63 | 90 | 0.0 | 0.0 | 0.00 | 0.00 | 0.00 | 47 | 967.0 |
| 20260503194916 | 63 | 91 | 0.0 | 0.0 | 0.00 | 0.00 | 0.00 | 54 | 967.0 |
| 20260503194416 | 63 | 95 | 0.0 | 0.0 | 0.00 | 0.00 | 0.00 | 59 | 967.0 |
| 20260503193916 | 62 | 89 | 0.0 | 0.0 | 0.00 | 0.00 | 0.00 | 58 | 967.0 |
| 20260503193416 | 63 | 97 | 0.0 | 0.0 | 0.00 | 0.00 | 0.00 | 60 | 966.0 |
| 20260503192916 | 65 | 90 | 0.0 | 0.0 | 0.00 | 0.00 | 0.00 | 47 | 967.0 |
| 20260503192416 | 64 | 85 | 0.0 | 0.0 | 0.00 | 0.00 | 0.00 | 48 | 967.0 |
| 20260503191916 | 64 | 90 | 0.0 | 0.0 | 0.00 | 0.00 | 0.00 | 51 | 967.0 |
| 20260503191416 | 63 | 90 | 0.0 | 0.0 | 0.00 | 0.00 | 0.00 | 48 | 967.0 |
| 20260503190915 | 62 | 92 | 0.0 | 0.0 | 0.00 | 0.00 | 0.00 | 54 | 967.0 |
| 20260503190415 | 62 | 89 | 0.0 | 0.0 | 0.00 | 0.00 | 0.00 | 56 | 968.0 |
| 20260503185916 | 62 | 91 | 0.0 | 0.0 | 0.00 | 0.00 | 0.00 | 57 | 967.0 |
| 20260503185415 | 62 | 89 | 0.0 | 0.0 | 0.00 | 0.00 | 0.00 | 54 | 968.0 |
| 20260503184915 | 63 | 89 | 0.0 | 0.0 | 0.00 | 0.00 | 0.00 | 53 | 968.0 |
| 20260503184415 | 63 | 86 | 0.0 | 0.0 | 0.00 | 0.00 | 0.00 | 51 | 968.0 |
| 20260503183915 | 63 | 83 | 0.0 | 0.0 | 0.00 | 0.00 | 0.00 | 53 | 968.0 |
| 20260503183415 | 63 | 93 | 0.0 | 0.0 | 0.00 | 0.00 | 0.00 | 53 | 968.0 |
| 20260503182915 | 62 | 81 | 0.0 | 0.0 | 0.00 | 0.00 | 0.00 | 55 | 968.0 |
| 20260503182416 | 61 | 90 | 0.0 | 0.0 | 0.00 | 0.00 | 0.00 | 51 | 968.0 |
| 20260503181915 | 60 | 90 | 0.0 | 0.0 | 0.00 | 0.00 | 0.00 | 55 | 969.0 |
| 20260503181416 | 60 | 92 | 0.0 | 0.0 | 0.00 | 0.00 | 0.00 | 61 | 968.0 |
| 20260503180915 | 60 | 90 | 0.0 | 0.0 | 0.00 | 0.00 | 0.00 | 60 | 968.0 |
| 20260503180415 | 58 | 80 | 0.0 | 0.0 | 0.00 | 0.00 | 0.00 | 63 | 969.0 |
| 20260503175918 | 58 | 96 | 0.0 | 0.0 | 0.00 | 0.00 | 0.00 | 63 | 969.0 |
| 20260503175415 | 58 | 89 | 0.0 | 0.0 | 0.00 | 0.00 | 0.00 | 62 | 969.0 |
| 20260503174916 | 59 | 91 | 0.0 | 0.0 | 0.00 | 0.00 | 0.00 | 60 | 969.0 |
| 20260503174415 | 59 | 90 | 0.0 | 0.0 | 0.00 | 0.00 | 0.00 | 59 | 969.0 |
| 20260503173915 | 58 | 86 | 0.0 | 0.0 | 0.00 | 0.00 | 0.00 | 66 | 969.0 |
| 20260503173417 | 58 | 89 | 0.0 | 0.0 | 0.00 | 0.00 | 0.00 | 66 | 969.0 |
| 20260503172915 | 58 | 90 | 0.0 | 0.0 | 0.00 | 0.00 | 0.00 | 68 | 969.0 |
| 20260503172416 | 57 | 92 | 0.0 | 0.0 | 0.00 | 0.00 | 0.00 | 63 | 969.0 |
| 20260503171915 | 57 | 93 | 0.0 | 0.0 | 0.00 | 0.00 | 0.00 | 64 | 969.0 |
| 20260503171415 | 57 | 98 | 0.0 | 0.0 | 0.00 | 0.00 | 0.00 | 64 | 970.0 |
| 20260503170915 | 56 | 94 | 0.0 | 0.0 | 0.00 | 0.00 | 0.00 | 65 | 970.0 |
| 20260503170415 | 56 | 92 | 0.0 | 0.0 | 0.00 | 0.00 | 0.00 | 63 | 970.0 |
| 20260503150916 | 56 | 56 | 0.0 | 0.0 | 0.00 | 0.00 | 0.00 | 61 | 971.0 |
| 20260503150415 | 57 | 50 | 0.0 | 0.0 | 0.00 | 0.00 | 0.00 | 57 | 971.0 |
| 20260503131415 | 46 | 290 | 0.0 | 0.0 | 0.00 | 0.00 | 0.00 | 71 | 971.0 |
| 20260503130916 | 47 | 271 | 0.0 | 0.0 | 0.00 | 0.00 | 0.00 | 70 | 970.0 |
| 20260503130415 | 47 | 269 | 0.0 | 0.0 | 0.00 | 0.00 | 0.00 | 67 | 971.0 |
| 20260503110415 | 49 | 221 | 0.0 | 0.0 | 0.00 | 0.00 | 0.00 | 62 | 970.0 |
| 20260503090416 | 52 | 258 | 0.0 | 0.0 | 0.00 | 0.00 | 0.00 | 58 | 970.0 |
| 20260503081416 | 53 | 280 | 0.0 | 0.0 | 0.00 | 0.00 | 0.00 | 54 | 969.0 |
| 20260503080915 | 53 | 257 | 0.0 | 0.0 | 0.00 | 0.00 | 0.00 | 54 | 970.0 |
| 20260503080415 | 53 | 262 | 0.0 | 0.0 | 0.00 | 0.00 | 0.00 | 57 | 969.0 |